User: anonymous   Login
Location: Newark
(44.3248°N, 23.7839°E)
Time: 19:04:00
(UTC+00:00)
Language:

ITUPSAT 1 - Orbit

View from above orbital plane
View from above orbital plane
View from above satellite
View from above satellite

Ground track
Ground track

The orbit data is extracted from the following two-line orbital elements,

1 35935U 09051E   24112.96488199  .00003417  00000-0  76088-3 0  9991
2 35935  98.4822 355.9378 0008519 143.4373 216.7408 14.57560133774100
Epoch (UTC): 21 April 2024 23:09:25
Eccentricity: 0.0008519
inclination: 98.4822°
perigee height: 695 km
apogee height: 707 km
right ascension of ascending node: 355.9378°
argument of perigee: 143.4373°
revolutions per day: 14.57560133
mean anomaly at epoch: 216.7408°
orbit number at epoch: 77410

The dashed part of the orbit path shows where the satellite is in the earth's shadow,  

DLR